Location: Acheville
(50.3840°N, 2.8827°E)
Time: 10:53:29
(UTC+00:00)

NOSS 2-3 (E) - Pass Details

Date: 24 October 2021
Orbit: 540 x 1670 km, 63.4° (Epoch: 28 November)

Event Time Altitude Azimuth Distance (km) Brightness Sun altitude
Rises 17:22:18 0° 190° (S) 2,689 7.1 -7.6°
Reaches altitude 10° 17:24:34 10° 178° (S) 1,830 6.1 -8.0°
Maximum altitude 17:28:02 29° 118° (ESE) 1,113 4.4 -8.5°
Drops below altitude 10° 17:31:59 10° 59° (ENE) 2,101 5.7 -9.1°
Enters shadow 17:32:11 - 58° (ENE) 2,172 5.8 -9.2°
